Location: Saint-Maurice-d�Ard�che
(44.5216°N, 4.4002°E)
Time: 02:18:01
(UTC+00:00)

ARGOS - Pass Details

Date: 30 March 2020
Orbit: 821 x 834 km, 98.5° (Epoch: 05 June)

Event Time Altitude Azimuth Distance (km) Brightness Sun altitude
Rises 19:07:22 0° 158° (SSE) 3,363 5.9 -11.2°
Reaches altitude 10° 19:09:43 10° 157° (SSE) 2,432 5.2 -11.6°
Maximum altitude 19:15:05 73° 73° (ENE) 870 3.1 -12.5°
Drops below altitude 10° 19:20:29 10° 350° (N) 2,440 6.0 -13.4°
Sets 19:22:50 0° 349° (NNW) 3,376 6.8 -13.8°
